TimeCST,TemperatureF,Dew PointF,Humidity,Sea Level PressureIn,VisibilityMPH,Wind Direction,Wind SpeedMPH,Gust SpeedMPH,PrecipitationIn,Events,Conditions,WindDirDegrees,DateUTC
12:13 AM,19.4,12.2,74,30.39,10.0,Calm,Calm,-,N/A,,Clear,0,2012-12-05 06:13:00
12:33 AM,17.6,12.2,79,30.39,10.0,Calm,Calm,-,N/A,,Clear,0,2012-12-05 06:33:00
12:53 AM,17.6,12.2,79,30.38,10.0,East,3.5,-,N/A,,Clear,100,2012-12-05 06:53:00
1:13 AM,15.8,12.2,86,30.38,10.0,East,4.6,-,N/A,,Clear,100,2012-12-05 07:13:00
1:53 AM,17.6,12.2,79,30.37,10.0,East,6.9,-,N/A,,Clear,100,2012-12-05 07:53:00
2:13 AM,17.6,12.2,79,30.38,10.0,East,5.8,-,N/A,,Clear,100,2012-12-05 08:13:00
2:33 AM,17.6,12.2,79,30.37,10.0,East,8.1,-,N/A,,Clear,100,2012-12-05 08:33:00
2:53 AM,17.6,12.2,79,30.37,10.0,East,6.9,-,N/A,,Clear,100,2012-12-05 08:53:00
3:13 AM,17.6,12.2,79,30.37,10.0,East,5.8,-,N/A,,Clear,100,2012-12-05 09:13:00
3:33 AM,17.6,12.2,79,30.37,10.0,East,6.9,-,N/A,,Clear,90,2012-12-05 09:33:00
3:53 AM,17.6,12.2,79,30.36,10.0,East,9.2,-,N/A,,Clear,90,2012-12-05 09:53:00
4:13 AM,17.6,12.2,79,30.34,10.0,East,10.4,-,N/A,,Clear,100,2012-12-05 10:13:00
4:33 AM,19.4,14.0,80,30.33,10.0,ESE,8.1,-,N/A,,Clear,120,2012-12-05 10:33:00
4:53 AM,17.6,12.2,79,30.34,10.0,ESE,9.2,-,N/A,,Clear,120,2012-12-05 10:53:00
5:13 AM,17.6,14.0,86,30.34,10.0,SE,6.9,-,N/A,,Clear,130,2012-12-05 11:13:00
5:33 AM,17.6,14.0,86,30.33,10.0,ESE,8.1,-,N/A,,Clear,120,2012-12-05 11:33:00
5:53 AM,17.6,14.0,86,30.33,10.0,ESE,9.2,-,N/A,,Clear,110,2012-12-05 11:53:00
6:13 AM,19.4,14.0,80,30.32,10.0,East,10.4,-,N/A,,Clear,100,2012-12-05 12:13:00
6:33 AM,19.4,14.0,80,30.31,10.0,ESE,12.7,-,N/A,,Clear,120,2012-12-05 12:33:00
6:53 AM,19.4,14.0,80,30.31,10.0,SE,10.4,-,N/A,,Clear,130,2012-12-05 12:53:00
8:33 AM,21.2,14.0,74,30.28,10.0,SE,11.5,-,N/A,,Clear,140,2012-12-05 14:33:00
8:53 AM,21.2,14.0,74,30.28,10.0,SE,10.4,16.1,N/A,,Clear,140,2012-12-05 14:53:00
9:13 AM,23.0,14.0,68,30.27,10.0,SE,12.7,17.3,N/A,,Clear,130,2012-12-05 15:13:00
9:33 AM,24.8,15.8,69,30.25,10.0,SE,15.0,19.6,N/A,,Clear,130,2012-12-05 15:33:00
9:53 AM,24.8,15.8,69,30.24,10.0,SE,16.1,20.7,N/A,,Clear,130,2012-12-05 15:53:00
10:13 AM,26.6,15.8,64,30.23,10.0,SE,15.0,-,N/A,,Clear,130,2012-12-05 16:13:00
10:34 AM,26.6,15.8,64,30.21,10.0,SE,16.1,21.9,N/A,,Clear,130,2012-12-05 16:34:00
10:53 AM,28.4,15.8,59,30.20,10.0,SE,17.3,-,N/A,,Clear,130,2012-12-05 16:53:00
11:13 AM,28.4,15.8,59,30.19,10.0,SE,16.1,-,N/A,,Clear,130,2012-12-05 17:13:00
11:34 AM,30.2,15.8,55,30.17,10.0,ESE,18.4,-,N/A,,Clear,120,2012-12-05 17:34:00
11:53 AM,30.2,15.8,55,30.15,10.0,SE,16.1,-,N/A,,Clear,130,2012-12-05 17:53:00
12:13 PM,32.0,15.8,51,30.13,10.0,SE,16.1,-,N/A,,Clear,130,2012-12-05 18:13:00
12:34 PM,33.8,15.8,48,30.11,10.0,SE,18.4,23.0,N/A,,Scattered Clouds,130,2012-12-05 18:34:00
12:53 PM,33.8,17.6,52,30.09,10.0,SE,16.1,23.0,N/A,,Mostly Cloudy,130,2012-12-05 18:53:00
1:13 PM,33.8,17.6,52,30.07,10.0,SE,16.1,24.2,N/A,,Scattered Clouds,130,2012-12-05 19:13:00
1:34 PM,35.6,17.6,48,30.05,10.0,SE,18.4,23.0,N/A,,Clear,130,2012-12-05 19:34:00
1:53 PM,35.6,17.6,48,30.04,10.0,SE,20.7,26.5,N/A,,Clear,130,2012-12-05 19:53:00
2:13 PM,35.6,17.6,48,30.02,10.0,SE,18.4,26.5,N/A,,Clear,130,2012-12-05 20:13:00
2:34 PM,37.4,19.4,48,30.01,10.0,SE,17.3,25.3,N/A,,Clear,130,2012-12-05 20:34:00
2:53 PM,37.4,19.4,48,29.99,10.0,SE,18.4,27.6,N/A,,Clear,140,2012-12-05 20:53:00
3:13 PM,37.4,19.4,48,29.98,10.0,SE,17.3,27.6,N/A,,Clear,140,2012-12-05 21:13:00
3:34 PM,37.4,19.4,48,29.96,10.0,SE,17.3,26.5,N/A,,Clear,140,2012-12-05 21:34:00
3:53 PM,37.4,19.4,48,29.95,10.0,SE,18.4,24.2,N/A,,Clear,140,2012-12-05 21:53:00
4:13 PM,37.4,19.4,48,29.94,10.0,SE,19.6,24.2,N/A,,Clear,140,2012-12-05 22:13:00
4:34 PM,39.2,21.2,49,29.93,10.0,SE,15.0,24.2,N/A,,Clear,140,2012-12-05 22:34:00
4:53 PM,39.2,21.2,49,29.92,10.0,SE,18.4,24.2,N/A,,Clear,140,2012-12-05 22:53:00
5:13 PM,39.2,21.2,49,29.91,10.0,SE,15.0,21.9,N/A,,Scattered Clouds,140,2012-12-05 23:13:00
5:34 PM,39.2,21.2,49,29.91,10.0,SSE,15.0,23.0,N/A,,Scattered Clouds,150,2012-12-05 23:34:00
5:53 PM,39.2,21.2,49,29.90,10.0,SSE,10.4,20.7,N/A,,Scattered Clouds,150,2012-12-05 23:53:00
6:13 PM,39.2,21.2,49,29.90,10.0,SSE,11.5,17.3,N/A,,Clear,150,2012-12-06 00:13:00
6:33 PM,39.2,23.0,52,29.89,10.0,SSE,11.5,19.6,N/A,,Mostly Cloudy,160,2012-12-06 00:33:00
6:53 PM,39.2,23.0,52,29.88,10.0,SSE,15.0,21.9,N/A,,Mostly Cloudy,150,2012-12-06 00:53:00
7:13 PM,39.2,24.8,56,29.88,10.0,SSE,10.4,18.4,N/A,,Overcast,150,2012-12-06 01:13:00
7:33 PM,41.0,24.8,53,29.88,10.0,SSE,12.7,21.9,N/A,,Mostly Cloudy,150,2012-12-06 01:33:00
7:54 PM,41.0,24.8,53,29.87,10.0,SSE,10.4,23.0,N/A,,Scattered Clouds,150,2012-12-06 01:54:00
8:13 PM,39.2,24.8,56,29.86,10.0,SSE,13.8,21.9,N/A,,Scattered Clouds,150,2012-12-06 02:13:00
8:33 PM,41.0,24.8,53,29.85,10.0,SSE,12.7,26.5,N/A,,Overcast,160,2012-12-06 02:33:00
8:54 PM,41.0,24.8,53,29.84,10.0,SSE,11.5,21.9,N/A,,Overcast,160,2012-12-06 02:54:00
9:13 PM,41.0,26.6,57,29.84,10.0,SSE,11.5,23.0,N/A,,Overcast,150,2012-12-06 03:13:00
9:33 PM,41.0,26.6,57,29.83,10.0,SSE,13.8,19.6,N/A,,Overcast,150,2012-12-06 03:33:00
9:54 PM,41.0,26.6,57,29.82,10.0,SSE,13.8,23.0,N/A,,Mostly Cloudy,160,2012-12-06 03:54:00
10:13 PM,41.0,26.6,57,29.81,10.0,SSE,13.8,19.6,N/A,,Mostly Cloudy,150,2012-12-06 04:13:00
10:33 PM,41.0,26.6,57,29.79,10.0,SSE,13.8,19.6,N/A,,Mostly Cloudy,150,2012-12-06 04:33:00
10:54 PM,41.0,28.4,61,29.79,10.0,SSE,10.4,17.3,N/A,,Scattered Clouds,150,2012-12-06 04:54:00
11:13 PM,42.8,28.4,57,29.78,10.0,SSE,12.7,18.4,N/A,,Scattered Clouds,150,2012-12-06 05:13:00
11:33 PM,42.8,28.4,57,29.78,10.0,SSE,9.2,-,N/A,,Clear,160,2012-12-06 05:33:00
11:53 PM,42.8,30.2,61,29.78,10.0,SSE,9.2,17.3,N/A,,Mostly Cloudy,160,2012-12-06 05:53:00